| time (UTC) | temp F | wind direction | speed MPH | gust MPH | rain 1hr in | rain 24hr in | rain mn in | humidity % | barometer mb |
| 20260504023216 | 60 | 251 | 3.0 | 4.0 | 0.00 | 0.00 | 0.00 | 43 | 1003.1 |
| 20260504022712 | 60 | 168 | 2.0 | 3.0 | 0.00 | 0.00 | 0.00 | 45 | 1003.2 |
| 20260504022208 | 60 | 221 | 1.0 | 2.0 | 0.00 | 0.00 | 0.00 | 45 | 1003.3 |
| 20260504021706 | 60 | 195 | 1.0 | 4.0 | 0.00 | 0.00 | 0.00 | 45 | 1003.4 |
| 20260504021203 | 60 | 153 | 1.0 | 3.0 | 0.00 | 0.00 | 0.00 | 45 | 1003.3 |
| 20260504020700 | 60 | 227 | 2.0 | 4.0 | 0.00 | 0.00 | 0.00 | 46 | 1003.6 |
| 20260504020155 | 60 | 241 | 3.0 | 4.0 | 0.00 | 0.00 | 0.00 | 46 | 1003.6 |
| 20260504015652 | 60 | 136 | 3.0 | 4.0 | 0.00 | 0.00 | 0.00 | 45 | 1003.8 |
| 20260504015149 | 61 | 219 | 1.0 | 2.0 | 0.00 | 0.00 | 0.00 | 44 | 1003.7 |
| 20260504014644 | 61 | 209 | 3.0 | 4.0 | 0.00 | 0.00 | 0.00 | 43 | 1003.8 |
| 20260504014142 | 62 | 215 | 0.0 | 4.0 | 0.00 | 0.00 | 0.00 | 43 | 1003.9 |
| 20260504013639 | 62 | 228 | 3.0 | 3.0 | 0.00 | 0.00 | 0.00 | 41 | 1003.9 |
| 20260504013136 | 62 | 262 | 2.0 | 3.0 | 0.00 | 0.00 | 0.00 | 41 | 1004.0 |
| 20260504012633 | 62 | 219 | 2.0 | 6.0 | 0.00 | 0.00 | 0.00 | 42 | 1004.0 |
| 20260504012131 | 62 | 273 | 1.0 | 3.0 | 0.00 | 0.00 | 0.00 | 42 | 1004.3 |
| 20260504011628 | 62 | 273 | 1.0 | 3.0 | 0.00 | 0.00 | 0.00 | 42 | 1004.3 |
| 20260504011124 | 62 | 233 | 2.0 | 2.0 | 0.00 | 0.00 | 0.00 | 42 | 1004.1 |
| 20260504010620 | 63 | 252 | 1.0 | 2.0 | 0.00 | 0.00 | 0.00 | 41 | 1004.5 |
| 20260504010116 | 64 | 264 | 2.0 | 3.0 | 0.00 | 0.00 | 0.00 | 39 | 1004.3 |
| 20260504005613 | 65 | 255 | 1.0 | 2.0 | 0.00 | 0.00 | 0.00 | 36 | 1004.5 |
| 20260504005110 | 65 | 197 | 2.0 | 2.0 | 0.00 | 0.00 | 0.00 | 36 | 1004.7 |
| 20260504004608 | 66 | 257 | 3.0 | 4.0 | 0.00 | 0.00 | 0.00 | 36 | 1004.5 |
| 20260504004105 | 66 | 284 | 5.0 | 7.0 | 0.00 | 0.00 | 0.00 | 33 | 1004.7 |
| 20260504003601 | 66 | 255 | 6.0 | 7.0 | 0.00 | 0.00 | 0.00 | 33 | 1004.6 |
| 20260504003058 | 66 | 249 | 4.0 | 4.0 | 0.00 | 0.00 | 0.00 | 35 | 1004.7 |
| 20260504002555 | 66 | 252 | 2.0 | 3.0 | 0.00 | 0.00 | 0.00 | 35 | 1004.9 |
| 20260504002052 | 66 | 223 | 2.0 | 4.0 | 0.00 | 0.00 | 0.00 | 36 | 1005.1 |
| 20260504001550 | 67 | 256 | 6.0 | 8.0 | 0.00 | 0.00 | 0.00 | 33 | 1005.0 |
| 20260504001045 | 67 | 281 | 5.0 | 10.0 | 0.00 | 0.00 | 0.00 | 33 | 1005.1 |
| 20260504000543 | 67 | 249 | 3.0 | 4.0 | 0.00 | 0.00 | 0.00 | 33 | 1005.2 |
| 20260504000040 | 67 | 263 | 6.0 | 8.0 | 0.00 | 0.00 | 0.00 | 31 | 1005.3 |
| 20260503235539 | 67 | 319 | 6.0 | 7.0 | 0.00 | 0.00 | 0.00 | 30 | 1005.5 |
| 20260503235035 | 67 | 289 | 5.0 | 7.0 | 0.00 | 0.00 | 0.00 | 30 | 1005.4 |
| 20260503234533 | 68 | 260 | 9.0 | 11.0 | 0.00 | 0.00 | 0.00 | 30 | 1005.6 |
| 20260503234031 | 68 | 278 | 8.0 | 9.0 | 0.00 | 0.00 | 0.00 | 30 | 1005.5 |
| 20260503233527 | 68 | 259 | 7.0 | 9.0 | 0.00 | 0.00 | 0.00 | 30 | 1005.5 |
| 20260503233023 | 68 | 292 | 11.0 | 14.0 | 0.00 | 0.00 | 0.00 | 29 | 1005.7 |
| 20260503232520 | 67 | 279 | 8.0 | 9.0 | 0.00 | 0.00 | 0.00 | 30 | 1005.8 |
| 20260503232018 | 67 | 246 | 7.0 | 10.0 | 0.00 | 0.00 | 0.00 | 31 | 1005.9 |
| 20260503231516 | 67 | 324 | 6.0 | 8.0 | 0.00 | 0.00 | 0.00 | 31 | 1005.8 |
| 20260503231012 | 67 | 324 | 6.0 | 8.0 | 0.00 | 0.00 | 0.00 | 31 | 1005.9 |
| 20260503230509 | 67 | 324 | 6.0 | 8.0 | 0.00 | 0.00 | 0.00 | 31 | 1005.9 |
| 20260503230007 | 67 | 221 | 8.0 | 9.0 | 0.00 | 0.00 | 0.00 | 30 | 1006.3 |
| 20260503225503 | 67 | 221 | 8.0 | 9.0 | 0.00 | 0.00 | 0.00 | 30 | 1005.9 |
| 20260503224958 | 67 | 241 | 6.0 | 8.0 | 0.00 | 0.00 | 0.00 | 30 | 1006.2 |
| 20260503224455 | 67 | 241 | 6.0 | 8.0 | 0.00 | 0.00 | 0.00 | 30 | 1006.0 |
| 20260503223953 | 67 | 241 | 6.0 | 8.0 | 0.00 | 0.00 | 0.00 | 30 | 1006.2 |
| 20260503223451 | 67 | 241 | 6.0 | 8.0 | 0.00 | 0.00 | 0.00 | 30 | 1006.4 |
| 20260503222946 | 68 | 246 | 9.0 | 11.0 | 0.00 | 0.00 | 0.00 | 31 | 1006.3 |
| 20260503222445 | 68 | 263 | 7.0 | 9.0 | 0.00 | 0.00 | 0.00 | 30 | 1006.4 |
| 20260503221943 | 68 | 274 | 8.0 | 10.0 | 0.00 | 0.00 | 0.00 | 32 | 1006.1 |
| 20260503221441 | 68 | 274 | 8.0 | 10.0 | 0.00 | 0.00 | 0.00 | 32 | 1006.4 |
| 20260503220937 | 68 | 274 | 8.0 | 10.0 | 0.00 | 0.00 | 0.00 | 32 | 1006.4 |
| 20260503220434 | 68 | 274 | 8.0 | 10.0 | 0.00 | 0.00 | 0.00 | 32 | 1006.4 |
| 20260503215931 | 68 | 274 | 8.0 | 10.0 | 0.00 | 0.00 | 0.00 | 32 | 1006.4 |
| 20260503215428 | 68 | 274 | 8.0 | 10.0 | 0.00 | 0.00 | 0.00 | 32 | 1006.7 |
| 20260503214926 | 68 | 274 | 8.0 | 10.0 | 0.00 | 0.00 | 0.00 | 32 | 1006.6 |
| 20260503214423 | 68 | 274 | 8.0 | 10.0 | 0.00 | 0.00 | 0.00 | 32 | 1006.6 |
| 20260503213920 | 68 | 269 | 9.0 | 11.0 | 0.00 | 0.00 | 0.00 | 29 | 1006.8 |
| 20260503213418 | 68 | 269 | 9.0 | 11.0 | 0.00 | 0.00 | 0.00 | 29 | 1006.9 |
| 20260503212914 | 68 | 300 | 11.0 | 15.0 | 0.00 | 0.00 | 0.00 | 29 | 1007.1 |
| 20260503212412 | 69 | 226 | 4.0 | 9.0 | 0.00 | 0.00 | 0.00 | 30 | 1007.0 |
| 20260503211909 | 68 | 245 | 7.0 | 13.0 | 0.00 | 0.00 | 0.00 | 31 | 1007.1 |
| 20260503211406 | 68 | 315 | 7.0 | 9.0 | 0.00 | 0.00 | 0.00 | 28 | 1007.4 |
| 20260503210901 | 68 | 308 | 4.0 | 9.0 | 0.00 | 0.00 | 0.00 | 32 | 1007.2 |
| 20260503210359 | 68 | 291 | 9.0 | 13.0 | 0.00 | 0.00 | 0.00 | 30 | 1007.4 |
| 20260503205853 | 68 | 343 | 4.0 | 8.0 | 0.00 | 0.00 | 0.00 | 35 | 1007.6 |
| 20260503205350 | 68 | 276 | 6.0 | 13.0 | 0.00 | 0.00 | 0.00 | 31 | 1007.7 |
| 20260503204846 | 67 | 244 | 8.0 | 10.0 | 0.00 | 0.00 | 0.00 | 32 | 1007.7 |
| 20260503204344 | 67 | 354 | 4.0 | 8.0 | 0.00 | 0.00 | 0.00 | 36 | 1007.7 |
| 20260503203841 | 67 | 256 | 6.0 | 10.0 | 0.00 | 0.00 | 0.00 | 36 | 1007.9 |
| 20260503203338 | 66 | 324 | 4.0 | 11.0 | 0.00 | 0.00 | 0.00 | 34 | 1008.0 |
| 20260503202835 | 66 | 276 | 5.0 | 9.0 | 0.00 | 0.00 | 0.00 | 34 | 1008.1 |
| 20260503202333 | 66 | 300 | 4.0 | 6.0 | 0.00 | 0.00 | 0.00 | 35 | 1008.1 |
| 20260503201831 | 66 | 0 | 6.0 | 14.0 | 0.00 | 0.00 | 0.00 | 35 | 1008.3 |
| 20260503201327 | 65 | 306 | 6.0 | 11.0 | 0.00 | 0.00 | 0.00 | 36 | 1008.3 |
| 20260503200826 | 65 | 2 | 7.0 | 14.0 | 0.00 | 0.00 | 0.00 | 33 | 1008.4 |
| 20260503200321 | 66 | 308 | 8.0 | 9.0 | 0.00 | 0.00 | 0.00 | 33 | 1008.4 |
| 20260503195819 | 66 | 347 | 7.0 | 10.0 | 0.00 | 0.00 | 0.00 | 31 | 1008.5 |
| 20260503195315 | 66 | 296 | 8.0 | 10.0 | 0.00 | 0.00 | 0.00 | 31 | 1008.7 |
| 20260503194813 | 66 | 314 | 4.0 | 7.0 | 0.00 | 0.00 | 0.00 | 34 | 1008.8 |
| 20260503194308 | 66 | 259 | 9.0 | 13.0 | 0.00 | 0.00 | 0.00 | 38 | 1008.6 |
| 20260503193804 | 65 | 313 | 8.0 | 10.0 | 0.00 | 0.00 | 0.00 | 34 | 1008.8 |
| 20260503193301 | 66 | 207 | 11.0 | 13.0 | 0.00 | 0.00 | 0.00 | 33 | 1008.7 |
| 20260503192756 | 66 | 207 | 11.0 | 13.0 | 0.00 | 0.00 | 0.00 | 33 | 1008.9 |
| 20260503192252 | 65 | 340 | 8.0 | 9.0 | 0.00 | 0.00 | 0.00 | 35 | 1008.9 |
| 20260503191749 | 65 | 324 | 5.0 | 7.0 | 0.00 | 0.00 | 0.00 | 35 | 1008.9 |
| 20260503191246 | 65 | 309 | 6.0 | 7.0 | 0.00 | 0.00 | 0.00 | 37 | 1009.1 |
| 20260503190743 | 65 | 322 | 5.0 | 9.0 | 0.00 | 0.00 | 0.00 | 35 | 1009.0 |
| 20260503190240 | 65 | 294 | 6.0 | 10.0 | 0.00 | 0.00 | 0.00 | 33 | 1009.1 |
| 20260503185737 | 64 | 267 | 7.0 | 10.0 | 0.00 | 0.00 | 0.00 | 34 | 1009.1 |
| 20260503185232 | 64 | 328 | 5.0 | 7.0 | 0.00 | 0.00 | 0.00 | 34 | 1009.3 |
| 20260503184727 | 64 | 294 | 5.0 | 10.0 | 0.00 | 0.00 | 0.00 | 33 | 1009.5 |
| 20260503184224 | 64 | 283 | 4.0 | 7.0 | 0.00 | 0.00 | 0.00 | 36 | 1009.2 |
| 20260503183720 | 64 | 15 | 8.0 | 11.0 | 0.00 | 0.00 | 0.00 | 37 | 1009.3 |
| 20260503183217 | 64 | 314 | 3.0 | 8.0 | 0.00 | 0.00 | 0.00 | 36 | 1009.6 |
| 20260503182716 | 64 | 330 | 2.0 | 9.0 | 0.00 | 0.00 | 0.00 | 33 | 1009.6 |
| 20260503182214 | 63 | 287 | 8.0 | 10.0 | 0.00 | 0.00 | 0.00 | 33 | 1009.7 |
| 20260503181710 | 63 | 348 | 4.0 | 11.0 | 0.00 | 0.00 | 0.00 | 35 | 1009.9 |
| 20260503181207 | 64 | 317 | 6.0 | 8.0 | 0.00 | 0.00 | 0.00 | 34 | 1010.0 |
| 20260503180704 | 63 | 10 | 4.0 | 6.0 | 0.00 | 0.00 | 0.00 | 38 | 1010.2 |
| 20260503180202 | 62 | 250 | 2.0 | 6.0 | 0.00 | 0.00 | 0.00 | 41 | 1010.2 |
| 20260503175659 | 62 | 5 | 6.0 | 9.0 | 0.00 | 0.00 | 0.00 | 35 | 1010.4 |
| 20260503175156 | 62 | 354 | 9.0 | 10.0 | 0.00 | 0.00 | 0.00 | 34 | 1010.4 |
| 20260503174652 | 62 | 64 | 8.0 | 13.0 | 0.00 | 0.00 | 0.00 | 35 | 1010.3 |
| 20260503174150 | 63 | 347 | 4.0 | 8.0 | 0.00 | 0.00 | 0.00 | 35 | 1010.3 |
| 20260503173644 | 62 | 243 | 5.0 | 11.0 | 0.00 | 0.00 | 0.00 | 36 | 1010.5 |
| 20260503173141 | 61 | 351 | 6.0 | 14.0 | 0.00 | 0.00 | 0.00 | 36 | 1010.4 |
| 20260503172638 | 62 | 293 | 4.0 | 8.0 | 0.00 | 0.00 | 0.00 | 38 | 1010.6 |
| 20260503172135 | 62 | 316 | 6.0 | 13.0 | 0.00 | 0.00 | 0.00 | 36 | 1010.5 |
| 20260503171632 | 61 | 253 | 4.0 | 11.0 | 0.00 | 0.00 | 0.00 | 37 | 1010.5 |
| 20260503171129 | 62 | 26 | 5.0 | 8.0 | 0.00 | 0.00 | 0.00 | 37 | 1010.6 |
| 20260503170626 | 62 | 268 | 3.0 | 8.0 | 0.00 | 0.00 | 0.00 | 38 | 1010.7 |
| 20260503170123 | 62 | 328 | 6.0 | 13.0 | 0.00 | 0.00 | 0.00 | 36 | 1010.6 |
| 20260503150515 | 57 | 324 | 7.0 | 9.0 | 0.00 | 0.00 | 0.00 | 42 | 1010.7 |
| 20260503131408 | 52 | 154 | 5.0 | 9.0 | 0.00 | 0.00 | 0.00 | 65 | 1010.2 |
| 20260503130904 | 52 | 29 | 5.0 | 7.0 | 0.00 | 0.00 | 0.00 | 65 | 1010.1 |
| 20260503130402 | 51 | 319 | 7.0 | 9.0 | 0.00 | 0.00 | 0.00 | 66 | 1010.1 |
| 20260503110805 | 48 | 357 | 3.0 | 7.0 | 0.00 | 0.00 | 0.00 | 71 | 1008.9 |
| 20260503110303 | 48 | 19 | 2.0 | 6.0 | 0.00 | 0.00 | 0.00 | 71 | 1008.8 |
| 20260503100229 | 47 | 48 | 1.0 | 2.0 | 0.00 | 0.00 | 0.00 | 71 | 1008.5 |
| 20260503090154 | 48 | 124 | 2.0 | 3.0 | 0.00 | 0.00 | 0.00 | 68 | 1007.9 |
| 20260503081630 | 50 | 341 | 4.0 | 4.0 | 0.00 | 0.00 | 0.00 | 66 | 1007.2 |
| 20260503081126 | 50 | 327 | 2.0 | 6.0 | 0.00 | 0.00 | 0.00 | 65 | 1007.2 |
| 20260503080622 | 51 | 328 | 3.0 | 4.0 | 0.00 | 0.00 | 0.00 | 65 | 1007.2 |
| 20260503080119 | 51 | 343 | 4.0 | 6.0 | 0.00 | 0.00 | 0.00 | 65 | 1007.1 |
| 20260503072556 | 50 | 233 | 1.0 | 2.0 | 0.00 | 0.00 | 0.00 | 69 | 1006.9 |
| 20260503072054 | 50 | 235 | 1.0 | 2.0 | 0.00 | 0.00 | 0.00 | 70 | 1007.0 |
| 20260503071550 | 48 | 226 | 0.0 | 1.0 | 0.00 | 0.00 | 0.00 | 74 | 1006.8 |
| 20260503071047 | 48 | 232 | 1.0 | 2.0 | 0.00 | 0.00 | 0.00 | 75 | 1006.8 |
| 20260503070543 | 47 | 224 | 0.0 | 0.0 | 0.00 | 0.00 | 0.00 | 78 | 1006.7 |
| 20260503055003 | 55 | 206 | 3.0 | 3.0 | 0.00 | 0.00 | 0.00 | 59 | 1007.0 |
| 20260503054458 | 55 | 311 | 1.0 | 2.0 | 0.00 | 0.00 | 0.00 | 61 | 1007.0 |
| 20260503053956 | 55 | 147 | 0.0 | 3.0 | 0.00 | 0.00 | 0.00 | 58 | 1006.8 |
| 20260503053454 | 54 | 270 | 1.0 | 3.0 | 0.00 | 0.00 | 0.00 | 59 | 1007.0 |
| 20260503052950 | 53 | 227 | 0.0 | 6.0 | 0.00 | 0.00 | 0.00 | 63 | 1007.0 |
| 20260503052448 | 53 | 296 | 3.0 | 3.0 | 0.00 | 0.00 | 0.00 | 66 | 1006.6 |
| 20260503051944 | 51 | 185 | 1.0 | 2.0 | 0.00 | 0.00 | 0.00 | 72 | 1006.8 |
| 20260503051440 | 51 | 302 | 1.0 | 1.0 | 0.00 | 0.00 | 0.00 | 73 | 1006.8 |
| 20260503050937 | 51 | 195 | 0.0 | 0.0 | 0.00 | 0.00 | 0.00 | 72 | 1006.9 |
| 20260503050433 | 52 | 277 | 0.0 | 0.0 | 0.00 | 0.00 | 0.00 | 71 | 1006.8 |
| 20260503045931 | 52 | 260 | 1.0 | 1.0 | 0.00 | 0.00 | 0.00 | 69 | 1006.7 |
| 20260503045429 | 51 | 175 | 0.0 | 1.0 | 0.00 | 0.00 | 0.00 | 69 | 1006.8 |
| 20260503044925 | 53 | 205 | 0.0 | 1.0 | 0.00 | 0.00 | 0.00 | 68 | 1006.8 |
| 20260503044422 | 53 | 338 | 2.0 | 3.0 | 0.00 | 0.00 | 0.00 | 65 | 1006.9 |
| 20260503043920 | 55 | 276 | 2.0 | 2.0 | 0.00 | 0.00 | 0.00 | 60 | 1006.7 |
| 20260503043416 | 55 | 226 | 2.0 | 3.0 | 0.00 | 0.00 | 0.00 | 59 | 1006.6 |
| 20260503042912 | 55 | 166 | 1.0 | 2.0 | 0.00 | 0.00 | 0.00 | 60 | 1006.6 |
| 20260503042409 | 56 | 235 | 0.0 | 2.0 | 0.00 | 0.00 | 0.00 | 60 | 1006.8 |
| 20260503041905 | 57 | 235 | 1.0 | 3.0 | 0.00 | 0.00 | 0.00 | 55 | 1006.8 |
| 20260503041403 | 57 | 199 | 4.0 | 4.0 | 0.00 | 0.00 | 0.00 | 54 | 1006.8 |
| 20260503040900 | 57 | 239 | 1.0 | 6.0 | 0.00 | 0.00 | 0.00 | 53 | 1006.7 |
| 20260503040357 | 57 | 216 | 3.0 | 4.0 | 0.00 | 0.00 | 0.00 | 52 | 1006.7 |
| 20260503035854 | 57 | 239 | 3.0 | 3.0 | 0.00 | 0.00 | 0.00 | 51 | 1007.0 |
| 20260503035351 | 58 | 227 | 2.0 | 3.0 | 0.00 | 0.00 | 0.00 | 50 | 1007.0 |
| 20260503034848 | 58 | 186 | 1.0 | 4.0 | 0.00 | 0.00 | 0.00 | 49 | 1007.0 |
| 20260503034346 | 58 | 181 | 1.0 | 6.0 | 0.00 | 0.00 | 0.00 | 47 | 1007.0 |
| 20260503033843 | 59 | 243 | 2.0 | 4.0 | 0.00 | 0.00 | 0.00 | 47 | 1007.0 |
| 20260503033340 | 59 | 224 | 3.0 | 3.0 | 0.00 | 0.00 | 0.00 | 47 | 1007.1 |
| 20260503032838 | 59 | 218 | 3.0 | 3.0 | 0.00 | 0.00 | 0.00 | 46 | 1007.2 |
| 20260503032337 | 59 | 249 | 2.0 | 6.0 | 0.00 | 0.00 | 0.00 | 46 | 1007.2 |
| 20260503031834 | 60 | 202 | 4.0 | 4.0 | 0.00 | 0.00 | 0.00 | 44 | 1007.4 |
| 20260503031331 | 60 | 235 | 3.0 | 9.0 | 0.00 | 0.00 | 0.00 | 44 | 1007.4 |
| 20260503030828 | 60 | 135 | 2.0 | 8.0 | 0.00 | 0.00 | 0.00 | 43 | 1007.2 |
| 20260503030324 | 60 | 236 | 3.0 | 8.0 | 0.00 | 0.00 | 0.00 | 42 | 1007.6 |
| 20260503025821 | 60 | 31 | 1.0 | 3.0 | 0.00 | 0.00 | 0.00 | 44 | 1007.5 |
| 20260503025319 | 60 | 239 | 2.0 | 4.0 | 0.00 | 0.00 | 0.00 | 43 | 1007.7 |
| 20260503024815 | 60 | 202 | 2.0 | 6.0 | 0.00 | 0.00 | 0.00 | 42 | 1007.8 |
| 20260503024312 | 60 | 227 | 5.0 | 8.0 | 0.00 | 0.00 | 0.00 | 42 | 1007.9 |
| 20260503023809 | 60 | 196 | 2.0 | 6.0 | 0.00 | 0.00 | 0.00 | 43 | 1007.9 |